Date String (YYYY-MM-DD hh:mm:ss) UTC,Instrument flags,absolute air pressure of the measurement (hPa),sample flow rate (lpm),inlet stack bypass flow (lpm),air temperature of the measurement (°C),ambient temperature measured by the external sensor (°C),aerosol sample conditioner tube jacket temperature (°C),OPC LED temperature (°C),internal box temperature (°C),relative humidity of the measurement (%),span deviation,mass concentration of particles derived from Lorenz-Mie calculation of OPC scattering (μg/m³),mass concentration of particles derived from Lorenz-Mie calculation of OPC scattering (μg/m³),mass concentration of particles derived from Lorenz-Mie calculation of OPC scattering (μg/m³)
DateTimeUTC,F1_M11,P_M11,Q1_M11,Q2_M11,T1_M11,T2_M11,T3_M11,T4_M11,T5_M11,U1_M11,ZSPAN_M11,X2_M11,X0_M11,X1_M11
2023-09-03 18:00:00,SystemResetWarning,0831.5,5.00,000.00,027.6,025.7,000.0,035.9,029.3,30.1,0000.0,0003.11,0007.69,0002.50
2023-09-03 18:01:00,SystemResetWarning,0831.4,4.99,000.00,027.7,026.1,000.0,035.9,029.4,29.6,0000.0,0003.11,0007.71,0002.51
2023-09-03 18:02:00,SystemResetWarning,0831.4,4.99,000.00,027.7,026.4,000.0,035.9,029.5,29.8,0000.0,0003.10,0007.20,0002.52
2023-09-03 18:03:00,SystemResetWarning,0831.3,4.99,000.00,027.8,025.8,000.0,035.9,029.3,30.0,0000.0,0003.13,0006.64,0002.54
2023-09-03 18:04:00,SystemResetWarning,0831.4,5.00,000.00,027.6,024.7,000.0,035.8,028.9,30.7,0000.0,0003.14,0006.64,0002.55
2023-09-03 18:05:00,SystemResetWarning,0831.3,5.01,000.00,027.6,024.5,000.0,035.8,028.9,30.3,0000.0,0003.14,0006.13,0002.55
2023-09-03 18:06:00,SystemResetWarning,0831.4,5.01,000.00,027.5,024.9,000.0,035.8,029.0,30.3,0000.0,0003.12,0005.97,0002.53
2023-09-03 18:07:00,SystemResetWarning,0831.3,5.00,000.00,027.6,025.3,000.0,035.8,029.1,30.1,0000.0,0003.11,0005.90,0002.51
2023-09-03 18:08:00,SystemResetWarning,0831.4,4.99,000.00,027.6,025.8,000.0,035.9,029.3,29.8,0000.0,0003.11,0005.01,0002.50
2023-09-03 18:09:00,SystemResetWarning,0831.4,5.00,000.00,027.7,026.2,000.0,035.9,029.4,29.2,0000.0,0003.10,0005.01,0002.47
2023-09-03 18:10:00,SystemResetWarning,0831.3,5.00,000.00,027.7,026.5,000.0,035.9,029.5,29.5,0000.0,0003.08,0004.95,0002.47
2023-09-03 18:11:00,SystemResetWarning,0831.4,4.99,000.00,027.8,026.5,000.0,035.9,029.5,29.5,0000.0,0003.06,0005.13,0002.44
2023-09-03 18:12:00,SystemResetWarning,0831.3,5.00,000.00,027.7,025.4,000.0,035.9,029.1,29.9,0000.0,0002.99,0006.10,0002.42
2023-09-03 18:13:00,SystemResetWarning,0831.3,5.00,000.00,027.6,024.6,000.0,035.8,028.9,29.5,0000.0,0002.98,0006.10,0002.40
2023-09-03 18:14:00,SystemResetWarning,0831.3,5.00,000.00,027.6,024.7,000.0,035.8,028.9,30.0,0000.0,0002.92,0007.43,0002.38
2023-09-03 18:15:00,SystemResetWarning,0831.3,5.01,000.00,027.6,025.1,000.0,035.8,029.0,30.8,0000.0,0002.92,0007.52,0002.38
2023-09-03 18:16:00,SystemResetWarning,0831.3,5.00,000.00,027.6,025.5,000.0,035.9,029.2,30.7,0000.0,0002.95,0007.60,0002.38
2023-09-03 18:17:00,SystemResetWarning,0831.3,4.99,000.00,027.7,026.0,000.0,035.9,029.4,29.7,0000.0,0003.02,0007.73,0002.40
2023-09-03 18:18:00,SystemResetWarning,0831.3,5.00,000.00,027.7,026.4,000.0,035.9,029.5,29.6,0000.0,0003.07,0007.77,0002.41
2023-09-03 18:19:00,SystemResetWarning,0831.3,5.00,000.00,027.8,026.7,000.0,035.9,029.6,29.7,0000.0,0003.08,0007.68,0002.42
2023-09-03 18:20:00,SystemResetWarning,0831.3,4.99,000.00,027.8,026.1,000.0,035.9,029.4,29.2,0000.0,0003.04,0007.54,0002.41
2023-09-03 18:21:00,SystemResetWarning,0831.3,4.99,000.00,027.7,024.9,000.0,035.9,028.9,29.8,0000.0,0003.00,0007.52,0002.40
2023-09-03 18:22:00,SystemResetWarning,0831.3,5.00,000.00,027.6,024.6,000.0,035.8,028.9,30.1,0000.0,0003.01,0007.55,0002.39
2023-09-03 18:23:00,SystemResetWarning,0831.3,5.01,000.00,027.6,024.9,000.0,035.8,029.0,29.9,0000.0,0003.05,0006.58,0002.39
2023-09-03 18:24:00,SystemResetWarning,0831.3,5.00,000.00,027.6,025.3,000.0,035.9,029.1,30.1,0000.0,0003.10,0006.64,0002.38
2023-09-03 18:25:00,SystemResetWarning,0831.3,5.00,000.00,027.6,025.8,000.0,035.9,029.3,30.0,0000.0,0003.09,0005.25,0002.37
2023-09-03 18:26:00,SystemResetWarning,0831.3,5.01,000.00,027.7,026.2,000.0,035.9,029.5,29.8,0000.0,0003.05,0004.57,0002.35
2023-09-03 18:27:00,SystemResetWarning,0831.3,4.98,000.00,027.8,026.3,000.0,035.9,029.5,30.1,0000.0,0003.00,0004.44,0002.32
2023-09-03 18:28:00,SystemResetWarning,0831.3,4.99,000.00,027.7,025.0,000.0,035.9,029.0,30.6,0000.0,0002.92,0004.11,0002.30
2023-09-03 18:29:00,SystemResetWarning,0831.2,5.01,000.00,027.6,024.3,000.0,035.8,028.8,30.5,0000.0,0002.91,0004.15,0002.29
2023-09-03 18:30:00,SystemResetWarning,0831.1,5.01,000.00,027.5,024.5,000.0,035.8,028.9,31.1,0000.0,0002.87,0004.11,0002.29
2023-09-03 18:31:00,SystemResetWarning,0831.2,5.01,000.00,027.5,024.8,000.0,035.8,028.9,31.5,0000.0,0002.89,0004.11,0002.32
2023-09-03 18:32:00,SystemResetWarning,0831.2,4.99,000.00,027.5,025.3,000.0,035.8,029.1,30.6,0000.0,0002.91,0004.38,0002.34
2023-09-03 18:33:00,SystemResetWarning,0831.2,5.00,000.00,027.6,025.8,000.0,035.8,029.3,30.3,0000.0,0002.97,0004.64,0002.36
2023-09-03 18:34:00,SystemResetWarning,0831.2,5.00,000.00,027.6,026.2,000.0,035.9,029.4,30.3,0000.0,0002.96,0004.59,0002.38
2023-09-03 18:35:00,SystemResetWarning,0831.2,5.00,000.00,027.7,026.5,000.0,035.9,029.5,30.0,0000.0,0003.01,0004.98,0002.44
2023-09-03 18:36:00,SystemResetWarning,0831.2,4.99,000.00,027.8,026.6,000.0,035.9,029.6,31.3,0000.0,0003.11,0005.63,0002.51
2023-09-03 18:37:00,SystemResetWarning,0831.2,4.99,000.00,027.7,025.5,000.0,035.9,029.1,30.7,0000.0,0003.15,0005.80,0002.57
2023-09-03 18:38:00,SystemResetWarning,0831.2,5.01,000.00,027.6,024.6,000.0,035.8,028.9,30.0,0000.0,0003.21,0007.28,0002.63
2023-09-03 18:39:00,SystemResetWarning,0831.2,5.02,000.00,027.6,024.7,000.0,035.8,029.0,29.5,0000.0,0003.25,0008.00,0002.67
2023-09-03 18:40:00,SystemResetWarning,0831.1,5.00,000.00,027.6,025.1,000.0,035.8,029.1,30.2,0000.0,0003.24,0008.01,0002.68
2023-09-03 18:41:00,SystemResetWarning,0831.2,5.01,000.00,027.6,025.5,000.0,035.9,029.2,30.3,0000.0,0003.27,0008.11,0002.70
2023-09-03 18:42:00,SystemResetWarning,0831.1,5.00,000.00,027.7,025.9,000.0,035.9,029.4,30.0,0000.0,0003.29,0008.19,0002.71
2023-09-03 18:43:00,SystemResetWarning,0831.1,5.00,000.00,027.7,026.3,000.0,035.9,029.5,30.4,0000.0,0003.29,0008.85,0002.72
2023-09-03 18:44:00,SystemResetWarning,0831.1,4.99,000.00,027.8,026.4,000.0,035.9,029.5,30.4,0000.0,0003.26,0008.91,0002.73
2023-09-03 18:45:00,SystemResetWarning,0831.0,4.99,000.00,027.7,025.3,000.0,035.9,029.1,30.9,0000.0,0003.26,0008.94,0002.73
2023-09-03 18:46:00,SystemResetWarning,0830.9,5.01,000.00,027.6,024.4,000.0,035.8,028.9,30.0,0000.0,0003.23,0008.72,0002.70
2023-09-03 18:47:00,SystemResetWarning,0830.9,5.01,000.00,027.6,024.5,000.0,035.8,028.9,30.5,0000.0,0003.20,0008.46,0002.66
2023-09-03 18:48:00,SystemResetWarning,0831.0,5.00,000.00,027.6,024.9,000.0,035.8,029.0,30.8,0000.0,0003.17,0008.42,0002.62
2023-09-03 18:49:00,SystemResetWarning,0831.0,5.00,000.00,027.6,025.3,000.0,035.8,029.1,31.2,0000.0,0003.13,0007.64,0002.58
2023-09-03 18:50:00,SystemResetWarning,0831.0,5.00,000.00,027.6,025.8,000.0,035.9,029.3,30.7,0000.0,0003.12,0006.86,0002.56
2023-09-03 18:51:00,SystemResetWarning,0831.1,5.00,000.00,027.7,026.2,000.0,035.9,029.4,30.6,0000.0,0003.11,0006.77,0002.55
2023-09-03 18:52:00,SystemResetWarning,0831.1,5.00,000.00,027.7,026.3,000.0,035.9,029.4,30.7,0000.0,0003.06,0007.30,0002.52
2023-09-03 18:53:00,SystemResetWarning,0831.0,4.99,000.00,027.7,025.2,000.0,035.9,029.0,30.1,0000.0,0003.09,0007.37,0002.49
2023-09-03 18:54:00,SystemResetWarning,0831.0,5.00,000.00,027.6,024.3,000.0,035.8,028.8,30.1,0000.0,0003.06,0006.04,0002.49
2023-09-03 18:55:00,SystemResetWarning,0831.0,5.01,000.00,027.5,024.5,000.0,035.8,028.8,30.2,0000.0,0003.09,0005.52,0002.49
2023-09-03 18:56:00,SystemResetWarning,0830.9,5.01,000.00,027.5,024.8,000.0,035.8,028.9,30.4,0000.0,0003.10,0005.52,0002.49
2023-09-03 18:57:00,SystemResetWarning,0831.0,4.99,000.00,027.5,025.3,000.0,035.8,029.1,30.3,0000.0,0003.10,0005.46,0002.50
2023-09-03 18:58:00,SystemResetWarning,0831.1,5.00,000.00,027.6,025.7,000.0,035.8,029.2,30.2,0000.0,0003.11,0005.68,0002.52
2023-09-03 18:59:00,SystemResetWarning,0831.1,5.01,000.00,027.6,026.1,000.0,035.8,029.4,30.1,0000.0,0003.13,0005.97,0002.54
